Dewpoint
57 57 57 56 56 55 55 55 55 55 55 55 55 55 54 54 53 53 53 53 52 52 51 50 50 50 50 51 50 50 50 50 50 50 51 50 50 50 50 49 49 49 50 49 49 51 53 54 53 54 54 54 53 53 51 49 48 47 45 44 42 43 43 44 42 41 41 45 45 39 40 46 45 46 45 47 44 48 50 49 51 50 48 47 45
57 56 56 56 55 55 55 54 55 55 55 54 54 54 53 53 53 53 52 52 52 51 50 51 50 50 50 49 48 48 49 49 49 50 50 50 50 50 49 49 49 48 49 48 49 49 51 52 51 51 52 53 53 51 51 50 46 44 43 42 40 41 43 42 41 43 40 43 42 41 41 45 43 42 46 45 42 45 48 48 48 48 46 44 43
57 57 56 56 56 56 55 55 55 55 54 54 54 53 53 53 53 52 52 51 52 51 50 50 49 49 49 48 47 47 48 48 48 49 49 49 49 49 49 49 49 49 49 48 47 48 49 51 49 49 50 51 52 52 51 51 49 45 44 42 41 41 39 41 42 41 40 40 44 39 41 41 44 37 38 40 41 40 41 43 45 44 43 44 44
56 56 56 56 56 55 55 55 55 54 54 53 53 53 53 53 53 52 51 51 51 51 50 49 49 48 49 48 47 47 48 48 47 48 48 48 49 49 49 49 49 49 49 48 47 47 48 48 48 48 49 49 48 49 49 50 51 50 47 45 43 41 42 43 43 43 42 39 42 35 39 41 39 36 37 42 42 40 38 42 43 42 43 41 41
56 56 56 56 55 55 55 55 55 55 55 54 53 53 53 53 52 51 51 50 49 50 50 49 48 48 48 48 48 47 48 48 47 47 48 48 48 49 49 48 49 49 49 48 51 47 47 48 47 47 48 48 47 47 47 49 47 49 49 45 42 42 43 43 43 43 41 40 41 42 43 42 42 41 40 39 43 43 44 44 43 43 44 42 40
56 56 56 55 55 55 55 55 55 55 55 55 55 54 53 53 52 51 50 50 49 49 49 49 49 47 47 48 48 48 48 48 47 47 48 48 48 49 49 49 49 49 48 49 48 47 47 46 46 47 47 48 47 47 47 47 46 47 47 45 42 43 44 44 44 44 40 39 41 42 45 43 44 43 42 44 45 42 40 41 42 42 40 41 41
56 56 55 54 54 54 55 55 55 55 55 55 56 55 54 54 54 53 52 51 50 49 49 48 51 48 48 48 48 48 49 48 48 48 48 48 48 48 49 48 48 49 48 49 48 48 47 47 47 47 47 47 47 47 47 47 48 47 47 47 43 44 44 43 42 41 41 41 42 43 43 45 45 43 42 45 44 42 42 42 42 41 43 42 39
55 55 54 54 54 54 54 55 55 56 55 55 56 55 55 55 54 54 53 52 51 50 49 48 49 48 48 48 48 50 48 47 47 48 49 48 48 48 48 49 48 48 48 48 48 47 47 48 47 46 47 47 48 48 48 48 48 47 47 47 46 45 44 45 44 41 41 42 42 42 44 45 45 46 44 43 44 43 41 43 41 41 40 41 40
54 54 54 54 54 54 54 55 55 55 54 54 54 55 55 55 54 54 54 53 53 51 50 50 49 49 48 48 48 49 49 48 48 49 49 48 48 48 48 49 49 48 48 48 48 48 48 48 48 47 50 51 50 48 48 48 47 47 47 47 46 45 45 45 44 42 42 42 42 44 44 44 44 44 44 44 43 42 44 43 43 41 39 39 38
55 55 55 55 55 55 55 55 55 54 54 55 55 55 55 55 54 54 54 53 53 52 49 50 49 49 48 47 48 49 49 49 51 48 49 49 48 47 49 49 48 48 48 48 48 49 50 50 52 55 53 51 48 45 44 45 47 47 47 47 47 45 45 45 45 44 43 42 41 43 42 43 43 44 44 44 45 44 43 43 41 41 40 40 39
47 50 53 55 55 55 54 54 54 54 54 54 54 55 55 54 54 54 53 53 52 53 53 52 51 49 48 48 48 48 49 49 46 44 44 46 48 48 48 49 49 48 48 48 48 49 50 50 51 52 54 53 50 44 43 43 43 43 44 45 46 46 46 46 45 46 44 43 44 43 42 42 44 45 44 44 44 45 44 43 42 40 39 37 36
41 42 43 45 47 49 50 50 51 52 53 53 53 53 53 53 53 53 52 52 52 52 52 52 52 52 50 48 47 48 48 47 44 43 42 43 46 49 49 49 49 48 48 48 49 50 50 50 50 51 50 51 50 48 46 43 42 42 42 42 42 42 43 46 46 46 46 45 44 44 44 43 44 44 43 43 43 43 42 42 41 40 39 37 36
37 38 38 39 39 40 41 43 41 42 44 46 47 47 47 47 48 49 50 50 50 50 50 50 51 52 52 52 52 50 49 46 44 43 42 41 41 45 48 49 49 49 49 49 49 50 50 50 50 50 50 52 53 49 48 47 44 43 42 42 41 41 40 40 42 47 47 47 46 45 44 45 44 44 45 44 44 43 41 39 39 38 37 36 36
36 36 37 38 38 37 38 38 38 38 38 39 41 41 41 42 45 46 46 46 45 45 46 47 48 49 50 51 51 51 52 45 41 41 41 41 40 41 47 49 49 49 49 50 50 50 51 50 49 50 51 51 52 50 48 47 46 45 45 46 46 45 42 40 40 41 44 47 47 46 46 47 45 46 46 44 43 41 40 39 38 35 36 37 38
36 36 36 37 37 36 37 37 38 37 39 40 39 40 38 39 40 43 43 43 43 43 43 44 45 46 47 49 49 50 51 42 41 41 40 40 41 40 45 47 49 49 50 50 50 51 51 51 51 50 51 52 51 49 49 48 46 46 45 45 45 45 44 45 46 47 47 48 48 47 48 48 48 48 46 45 45 42 40 39 38 38 38 38 37
36 36 36 36 36 36 36 36 37 37 39 39 39 40 39 38 39 41 41 41 42 42 41 42 43 43 44 46 47 47 48 41 41 41 41 39 40 46 46 47 48 50 50 50 51 52 51 51 51 51 51 52 49 44 45 48 47 46 46 46 44 42 42 40 38 39 44 48 49 49 49 49 45 47 45 44 42 40 39 39 40 39 37 38 35
35 36 36 36 36 36 36 36 36 36 37 36 37 38 39 39 38 39 39 40 39 39 40 41 41 42 42 43 45 45 46 43 40 40 40 40 44 48 48 49 49 50 50 51 52 52 52 52 52 52 52 52 48 45 42 44 47 46 46 46 45 42 43 42 40 38 40 41 42 43 43 42 41 40 39 38 40 39 40 40 39 39 38 38 38
35 36 36 36 36 36 36 36 36 36 36 36 37 37 37 37 37 38 37 36 40 39 40 39 39 40 40 42 43 43 43 43 39 39 39 40 43 48 50 50 50 49 51 51 52 52 52 52 53 53 53 53 47 44 41 45 48 48 47 46 46 45 44 41 43 41 38 37 37 37 38 38 37 37 37 37 38 39 38 38 39 39 38 38 36
35 35 36 36 36 37 36 36 36 35 35 36 36 37 37 37 37 37 36 36 37 37 39 37 37 37 39 40 42 41 42 42 39 37 38 39 43 47 49 50 50 50 50 51 51 50 49 51 50 51 52 51 46 43 40 45 50 47 47 48 47 46 46 42 43 42 41 41 41 41 39 39 40 40 40 38 38 41 44 43 40 39 39 38 37
36 36 36 36 36 37 37 37 37 36 35 36 36 36 37 36 36 36 36 35 35 36 36 36 36 36 37 38 39 40 41 41 40 37 37 38 39 44 47 49 50 51 51 51 51 49 46 47 47 44 43 43 43 42 40 42 49 49 49 49 49 48 49 43 44 44 44 44 42 43 42 41 41 42 41 41 43 43 41 41 41 40 39 40 36
36 36 36 36 36 36 36 36 36 36 36 36 37 37 36 36 36 35 35 35 35 35 35 36 36 36 36 37 38 38 40 39 39 37 37 37 38 40 44 46 47 48 49 50 51 51 50 50 50 46 43 42 41 41 41 40 43 49 49 50 50 50 43 45 43 41 44 42 40 39 37 37 38 39 40 40 41 40 39 38 39 38 37 36 37
36 36 36 36 36 36 36 36 37 37 37 36 35 35 36 36 36 36 35 35 35 35 35 35 35 35 35 36 37 37 38 39 38 37 37 37 37 39 42 44 44 44 46 48 50 51 51 51 51 48 44 43 42 41 40 40 39 47 49 43 43 40 46 46 44 42 42 40 37 36 36 37 37 39 40 41 40 40 38 37 37 37 36 38 36
36 36 36 36 37 36 36 36 36 36 36 36 35 35 36 36 36 36 35 35 34 34 34 34 34 34 34 35 35 36 36 37 37 37 37 36 37 38 38 40 38 43 45 45 47 49 50 50 49 46 43 42 42 42 41 40 40 44 42 41 41 39 41 44 42 42 40 39 37 37 37 38 37 39 39 39 37 37 37 36 35 36 36 36 36
36 36 36 35 35 36 36 36 35 35 36 36 36 35 35 35 35 35 35 35 34 34 34 34 33 33 33 33 34 35 36 36 37 36 37 36 37 37 37 37 38 41 43 44 46 46 48 49 48 42 41 40 40 41 40 40 43 40 39 40 39 39 44 42 42 42 39 39 39 37 36 38 39 39 39 39 38 37 37 35 35 35 35 35 36
35 35 35 35 35 35 35 35 35 35 35 35 35 35 35 35 34 35 35 34 34 34 33 34 33 33 33 33 33 34 35 35 36 36 36 37 36 36 35 36 36 37 41 43 44 45 43 41 40 39 39 40 40 39 40 40 39 38 38 39 41 44 44 43 43 41 40 39 39 39 39 39 40 39 38 37 36 35 34 33 33 33 33 34 34
34 34 34 34 34 34 34 34 34 34 35 34 35 35 35 35 35 35 34 34 34 34 34 34 33 33 33 33 33 34 34 34 35 35 36 37 36 36 35 35 36 37 39 40 39 38 38 38 38 38 40 41 43 45 45 45 41 39 38 40 45 45 44 43 42 41 41 40 39 39 39 39 39 38 37 37 37 35 34 33 33 32 33 33 32
34 33 33 34 34 34 34 35 34 34 34 34 35 35 35 35 35 35 35 34 34 34 34 34 34 33 33 33 33 34 34 34 34 35 36 36 36 36 36 36 36 37 39 41 40 42 42 41 41 39 39 39 39 39 40 40 42 42 42 43 45 45 44 44 43 42 42 41 39 38 37 38 36 36 34 35 33 34 32 32 32 32 32 32 32
32 32 33 33 34 34 34 33 34 34 34 33 34 34 34 34 34 34 34 34 34 34 33 34 33 33 33 33 33 33 33 34 34 34 35 36 36 36 36 36 36 37 38 39 41 42 42 39 38 40 40 40 41 39 40 40 41 41 42 43 43 43 43 41 41 42 41 40 38 36 35 36 36 35 35 33 32 32 33 32 32 32 32 31 31
31 31 32 33 33 34 34 34 33 34 33 34 33 33 34 34 34 35 34 34 34 34 34 34 34 34 33 33 33 33 33 34 34 34 35 35 34 35 35 36 36 37 37 36 39 40 41 41 39 40 40 36 36 37 38 39 39 41 42 43 42 42 42 42 41 41 39 37 36 36 35 34 33 33 32 32 32 32 32 33 33 32 31 32 31
31 31 32 32 33 33 34 33 33 33 33 33 33 34 32 35 35 34 34 35 35 35 35 34 35 34 34 34 34 34 34 35 35 34 35 35 35 34 34 34 34 36 36 35 37 37 37 37 37 37 37 37 37 36 35 36 35 37 38 38 40 41 40 40 41 39 36 36 35 34 33 33 32 34 33 31 31 31 32 31 31 31 31 30 30
31 31 32 32 33 33 33 32 32 32 32 32 32 32 33 34 34 34 35 35 35 35 34 34 34 34 35 34 34 34 34 34 34 34 34 34 34 34 34 34 35 35 35 35 36 37 38 37 37 36 35 36 35 35 34 33 34 34 35 35 38 38 36 38 38 33 32 32 33 33 32 31 32 32 31 30 30 31 30 30 31 32 31 31 30
32 32 32 33 33 32 32 32 32 32 32 32 32 32 32 32 33 34 34 34 34 34 34 34 34 34 34 35 35 35 34 34 34 34 34 35 34 34 35 35 35 35 35 36 36 38 37 37 37 37 35 35 34 32 33 33 33 34 34 33 33 33 34 34 34 35 32 32 31 31 31 31 30 31 31 30 29 30 30 29 30 30 29 30 30
33 32 32 32 32 32 32 32 32 32 32 32 32 32 32 32 32 33 33 34 34 34 34 34 34 34 34 34 35 34 34 34 34 35 35 35 35 35 35 35 35 34 35 36 36 37 36 35 36 36 35 33 33 33 34 35 34 33 34 33 32 33 34 34 33 35 33 32 31 31 31 30 30 29 29 29 29 28 29 29 29 29 29 29 27
33 33 33 33 32 32 32 32 32 32 32 32 32 32 32 32 32 32 32 33 33 34 34 34 34 34 34 34 34 34 34 35 35 35 35 35 35 35 35 34 34 34 35 36 35 36 35 34 34 34 34 34 34 33 33 33 33 34 34 35 35 35 34 35 35 32 31 31 31 30 30 30 29 29 28 28 28 29 28 27 29 28 27 29 29
32 32 30 31 32 32 32 32 32 32 32 32 32 31 32 31 31 32 32 32 32 33 34 35 34 34 34 34 34 35 35 35 34 34 34 34 34 34 34 33 33 32 34 35 35 35 34 34 34 35 35 34 33 33 33 35 34 33 34 34 34 34 34 33 32 33 31 31 30 30 29 29 29 29 28 27 27 28 27 27 27 29 29 28 28
31 31 31 31 33 34 33 32 32 31 32 31 31 31 31 31 31 32 32 33 33 33 34 34 34 34 34 34 34 34 34 33 33 33 33 34 34 33 33 33 33 34 34 36 36 35 35 36 35 35 35 35 34 34 34 34 34 35 35 33 32 32 32 31 31 31 31 31 30 29 29 29 29 28 29 29 30 29 27 27 26 26 27 28 27
31 32 31 32 33 34 33 32 31 31 29 29 30 31 31 31 31 32 33 33 33 33 34 34 34 33 33 33 33 33 33 33 33 33 33 32 32 32 34 34 34 35 34 35 35 35 35 36 35 35 35 35 36 36 35 36 35 35 34 34 33 32 31 31 30 30 29 29 29 29 29 28 29 29 29 28 26 26 26 26 26 26 26 26 28
30 31 31 31 33 34 32 32 31 29 30 30 31 31 31 31 32 32 32 32 32 32 32 32 32 32 32 32 34 33 32 33 33 33 32 32 30 31 31 32 34 34 34 35 35 35 35 35 35 36 36 37 37 36 35 34 34 32 32 32 31 31 31 31 31 31 30 30 30 29 29 28 29 29 28 28 27 26 26 26 26 27 28 29 29
31 30 30 31 32 33 31 31 31 30 30 30 30 30 30 31 31 32 32 32 31 31 30 31 31 31 32 32 32 33 32 31 31 31 32 32 31 32 33 33 33 33 34 33 34 33 35 35 35 36 36 36 35 35 34 33 33 32 32 31 31 31 30 30 30 30 30 30 30 29 29 28 28 28 28 28 27 27 27 26 26 27 28 29 30
31 31 30 31 32 32 31 30 30 30 29 30 30 30 29 30 31 31 31 31 31 30 30 30 30 31 31 32 32 32 30 30 30 31 31 32 32 33 33 32 32 33 33 34 35 34 35 35 35 36 36 35 34 34 33 33 32 32 32 31 31 30 30 30 30 30 30 29 29 28 28 27 26 26 27 27 26 26 27 27 27 28 29 30 30
31 30 30 31 31 31 31 31 31 30 29 28 29 29 30 30 30 29 30 30 30 30 30 30 31 31 31 31 31 31 30 30 30 31 31 31 31 31 31 31 31 31 32 32 34 34 34 34 34 34 33 33 33 32 33 32 32 32 32 32 32 31 31 30 30 30 29 29 28 27 26 26 26 27 26 25 27 26 25 26 27 28 28 29 30
30 30 30 30 30 31 31 31 30 30 29 28 30 30 29 29 30 29 29 28 28 28 29 30 30 29 31 31 31 31 31 30 30 30 31 31 31 30 30 31 32 32 31 31 32 32 33 33 33 32 32 32 32 31 31 31 31 31 31 31 31 30 30 30 29 29 29 28 28 27 26 26 26 27 27 28 25 25 26 27 28 29 29 30 30
30 29 30 30 30 30 30 30 29 30 30 30 29 29 30 30 30 29 28 28 27 27 29 28 29 30 30 29 29 29 30 30 29 30 30 30 30 30 30 30 30 31 32 32 31 32 32 32 31 32 32 32 32 32 32 32 32 31 31 31 30 30 29 28 28 28 28 28 27 26 27 27 27 27 26 26 26 27 28 28 29 30 31 31 30
28 29 29 29 29 29 29 29 30 29 30 29 29 30 30 31 31 30 30 30 29 29 29 29 28 28 28 30 29 29 30 30 30 30 29 29 29 29 29 29 30 31 31 31 31 32 31 31 31 31 31 32 32 32 32 32 32 31 31 30 30 29 29 29 28 28 28 27 27 26 26 26 27 27 27 26 27 28 28 29 30 30 30 30 30
29 29 29 29 29 30 30 29 30 30 30 31 32 32 31 31 30 29 29 29 28 30 31 31 31 30 29 30 31 30 30 30 29 29 30 30 30 30 30 29 29 29 29 30 30 31 30 29 30 30 29 29 30 31 30 30 31 31 31 30 30 29 29 29 28 27 28 28 27 26 26 26 27 27 27 26 27 28 28 29 29 30 30 30 31
29 29 29 29 29 29 29 29 29 29 30 32 32 32 32 32 31 30 29 28 30 31 32 32 32 31 31 31 32 32 32 31 31 31 30 30 30 30 30 29 29 29 29 29 29 29 29 29 29 28 28 28 28 28 28 28 27 28 28 28 27 26 24 23 23 26 27 27 27 26 25 25 25 26 27 27 27 27 28 29 29 30 30 30 30
29 29 29 29 29 29 29 29 29 30 30 31 31 32 32 32 31 30 29 30 30 31 32 32 32 32 32 33 32 32 32 32 32 31 31 31 31 30 30 30 29 28 28 29 29 28 28 28 28 27 27 27 27 27 27 27 26 26 26 26 26 25 23 22 23 23 24 25 26 26 26 26 26 26 26 27 28 28 29 29 30 30 30 30 29
29 29 29 29 29 29 29 29 29 28 29 29 30 31 31 31 31 31 31 30 31 31 32 32 32 32 32 33 33 32 32 32 32 32 32 32 31 31 30 29 28 27 26 26 26 26 25 25 25 25 25 24 24 24 25 25 25 25 25 25 25 25 25 24 23 23 23 24 25 26 26 26 25 25 26 27 28 27 28 29 29 29 29 28 28
30 30 29 29 29 29 29 29 29 29 29 29 29 29 30 31 31 30 30 31 31 31 31 32 32 32 32 33 33 33 32 32 32 32 32 31 31 31 30 29 28 27 25 24 25 24 24 24 23 23 23 23 23 23 23 23 24 24 24 24 24 24 25 25 25 23 22 23 23 24 24 24 24 25 26 27 27 27 27 28 29 29 29 29 29
30 29 29 29 29 30 29 28 28 28 28 28 28 28 28 29 30 30 30 31 30 31 31 31 32 32 33 33 32 33 32 31 31 30 30 30 30 30 29 28 27 25 25 24 24 24 24 24 23 23 23 22 23 23 23 22 23 23 23 23 23 24 25 25 26 25 25 25 24 24 24 24 24 25 24 23 24 25 26 27 28 29 29 29 29
30 30 29 30 29 29 28 29 29 28 28 27 27 27 27 27 29 29 29 30 30 30 31 31 32 31 31 31 32 32 32 32 31 31 30 30 30 29 28 27 25 24 24 24 23 23 23 23 22 22 22 22 22 21 22 22 22 23 23 23 23 23 24 25 25 25 25 25 25 25 25 25 26 26 25 23 22 25 26 26 28 28 28 28 28